Tracking 18816 objects as of 17-October-2017
HD Live streaming from Space Station
objects crossing your sky now

DEMETER

Track DEMETER now!
10-day predictions
DEMETER is classified as:


NORAD ID: 28368
Int'l Code: 2004-025C
Perigee: 653.9 km
Apogee: 655.3 km
Inclination: 97.7 °
Period: 97.7 minutes
Semi major axis: 7025 km
RCS: 0.9257 m2 (medium)
Launch date: June 29, 2004
Source: France (FR)
Launch site: TYURATAM MISSILE AND SPACE COMPLEX (TTMTR)

Study of ionosperic perturbations in relation with seismic activity; global study of the Earth electromagnetic environment.
aabbcc
Your satellite tracking list
Your tracking list is empty





NASA's NSSDC Master Catalog

Two Line Element Set (TLE):
1 28368U 04025C   17289.96317673 +.00000420 +00000-0 +70666-4 0  9992
2 28368 097.7243 283.3265 0000993 106.0195 254.1125 14.74281044713560
Source of the keplerian elements: AFSPC